Flag for Germany Weather past 2 weeks in Augsburg, Bavaria, Germany

Now
63 °F

Partly sunny.


Feels Like: 63 °F
Forecast: 58 / 76 °F
Wind: 7 mph from Northwest

Location: Augsburg Airport

Current Time: Jul 31, 2014 at 7:59:26 AM

Latest Report: Jul 31, 2014 at 7:20 AM


Visibility: N/A

Pressure: 29.98 "Hg

Humidity: 100%

Dew point: 63 °F

Location of AugsburgLocation

Historic Weather in Augsburg — Graph

°F

Augsburg temperature yesterday

Maximum temperature yesterday: 73 °F (at 2:20 PM)
Minimum temperature yesterday: 63 °F (at 5:50 AM)
Average temperature yesterday: 67 °F

Past Weeks' High & Low Weather Summary

 TemperatureHumidityPressure
High91 °F (Jul 19, 5:20 PM)100% (Jul 16, 6:20 AM)30.21 "Hg (Jul 16, 6:20 AM)
Low52 °F (Jul 16, 6:20 AM)22% (Jul 19, 4:50 PM)29.77 "Hg (Jul 29, 2:50 PM)
Average72 °F68%29.96 "Hg
* Reported Jul 16 6:20 AM — Jul 31 6:50 AM, Augsburg, Weather by CustomWeather, © 2014

Note: Actual official high and low records may vary slightly from our data, if they occured in-between our weather recording intervals... More about our weather records

Advertising

Augsburg weather history for previous 24 hours

 ConditionsComfort  
Time TempWeatherWind HumidityBarometerVisibility
6:50 AM
Jul 31
63 °FBroken clouds.6 mph94%29.98 "HgN/A
6:20 AM63 °FOvercast.6 mph94%29.98 "Hg4 mi
5:50 AM63 °FOvercast.8 mph100%29.98 "Hg4 mi
8:50 PM
Jul 30
64 °FRain. Partly sunny.3 mph100%29.86 "Hg4 mi
8:20 PM64 °FHeavy rain. Broken clouds.3 mph100%29.86 "Hg4 mi
7:50 PM66 °FLight rain. Broken clouds.3 mph100%29.86 "Hg6 mi
7:20 PM66 °FRain. Broken clouds.5 mph100%29.86 "Hg5 mi
6:50 PM66 °FRain. Partly sunny.8 mph100%29.83 "Hg4 mi
6:20 PM68 °FSprinkles. Broken clouds.5 mph100%29.83 "HgN/A
5:50 PM68 °FRain showers. Scattered clouds.12 mph94%29.83 "HgN/A
5:20 PM70 °FSprinkles. Scattered clouds.9 mph83%29.83 "HgN/A
4:50 PM72 °FScattered clouds.12 mph73%29.83 "HgN/A
4:20 PM72 °FScattered clouds.10 mph73%29.83 "HgN/A
3:50 PM73 °FScattered clouds.12 mph69%29.83 "HgN/A
3:20 PM72 °FScattered showers. Scattered clouds.13 mph73%29.83 "HgN/A
2:50 PM72 °FScattered showers. Scattered clouds.7 mph69%29.83 "HgN/A
2:20 PM73 °FScattered showers. Broken clouds.8 mph74%29.83 "HgN/A
1:50 PM72 °FBroken clouds.6 mph73%29.83 "HgN/A
1:20 PM70 °FPartly sunny.8 mph78%29.83 "HgN/A
12:50 PM68 °FPartly sunny.8 mph88%29.83 "HgN/A
12:20 PM66 °FPartly sunny.8 mph94%29.83 "HgN/A
11:50 AM66 °FMostly cloudy.8 mph94%29.83 "HgN/A
11:20 AM66 °FOvercast.8 mph94%29.83 "HgN/A
10:50 AM66 °FMostly cloudy.9 mph94%29.83 "HgN/A
10:20 AM64 °FMostly cloudy.8 mph100%29.83 "Hg4 mi
9:50 AM63 °FDrizzle. Low clouds.6 mph100%29.83 "Hg3 mi
9:20 AM63 °FLow clouds.6 mph100%29.80 "Hg4 mi
8:50 AM63 °FLow clouds.8 mph100%29.80 "Hg5 mi
8:20 AM63 °FMostly cloudy.7 mph100%29.80 "Hg3 mi
7:50 AM63 °FDrizzle. Low clouds.8 mph100%29.80 "Hg3 mi
7:20 AM63 °FDrizzle. Mostly cloudy.6 mph100%29.80 "Hg3 mi
Weather by CustomWeather, © 2014

See weather overviewHow to use our weather pages